,,Stat5,,Stat1,,Stat2,,Stat3,,Stat4,,Wind1,,Wind1,
time,status,PA1M_AVG,status,PR1M_SUM,status,RH1M_AVG,status,SR1M_AVG,status,TA1M_AVG,status,W1dAve1m,status,W1sAve1m,
2000-04-04, 00:00:00,VALID,917.817,VALID,0,VALID,97.3731,VALID,-0.0679233,VALID,18.9562,VALID,182,VALID,0.960515,
2000-04-04, 00:01:00,VALID,917.813,VALID,0,VALID,97.3935,VALID,0.0509425,VALID,18.9391,VALID,190,VALID,1.33488,
2000-04-04, 00:02:00,VALID,917.804,VALID,0,VALID,97.3642,VALID,0.0509425,VALID,18.9059,VALID,199,VALID,0.973346,
2000-04-04, 00:03:00,VALID,917.79,VALID,0,VALID,97.1722,VALID,0.0169808,VALID,18.9029,VALID,198,VALID,1.08033,
2000-04-04, 00:04:00,VALID,917.8,VALID,0,VALID,96.7526,VALID,0.0849042,VALID,18.9063,VALID,194,VALID,0.992188,
2000-04-04, 00:05:00,VALID,917.788,VALID,0,VALID,96.5059,VALID,0.0509425,VALID,18.9089,VALID,181,VALID,0.980134,
2000-04-04, 00:06:00,VALID,917.782,VALID,0,VALID,96.3775,VALID,0.0509425,VALID,18.9357,VALID,175,VALID,0.865017,
2000-04-04, 00:07:00,VALID,917.78,VALID,0,VALID,95.926,VALID,0.0679233,VALID,18.9063,VALID,188,VALID,0.974392,
2000-04-04, 00:08:00,VALID,917.759,VALID,0,VALID,95.5611,VALID,0.0339617,VALID,18.8902,VALID,170,VALID,0.975893,
2000-04-04, 00:09:00,VALID,917.76,VALID,0,VALID,95.247,VALID,0.101885,VALID,18.8766,VALID,181,VALID,0.97309,
2000-04-04, 00:10:00,VALID,917.753,VALID,0,VALID,95.1999,VALID,0.101885,VALID,18.884,VALID,178,VALID,0.92296,
2000-04-04, 00:11:00,VALID,917.318,VALID,0,VALID,95.4276,VALID,0.0679233,VALID,18.8577,VALID,189,VALID,1.03378,
2000-04-04, 00:12:00,VALID,917.716,VALID,0,VALID,95.5204,VALID,0.0169808,VALID,18.8286,VALID,188,VALID,1.09049,
2000-04-04, 00:13:00,VALID,917.692,VALID,0,VALID,95.6577,VALID,0.0509425,VALID,18.7998,VALID,187,VALID,1.26629,
2000-04-04, 00:14:00,VALID,917.687,VALID,0,VALID,95.7035,VALID,0,VALID,18.7705,VALID,185,VALID,1.23667,
2000-04-04, 00:15:00,VALID,917.676,VALID,0,VALID,95.6234,VALID,0.0169808,VALID,18.7642,VALID,181,VALID,1.3715,
2000-04-04, 00:16:00,VALID,917.669,VALID,0,VALID,95.6882,VALID,0.0339617,VALID,18.7806,VALID,185,VALID,0.853885,
2000-04-04, 00:17:00,VALID,917.667,VALID,0,VALID,95.5229,VALID,0.0339617,VALID,18.7871,VALID,186,VALID,1.20801,
2000-04-04, 00:18:00,VALID,917.651,VALID,0,VALID,95.603,VALID,0.0509425,VALID,18.7737,VALID,178,VALID,0.902344,
2000-04-04, 00:19:00,VALID,917.634,VALID,0,VALID,95.4644,VALID,0.0509425,VALID,18.7677,VALID,177,VALID,0.879991,
2000-04-04, 00:20:00,VALID,917.61,VALID,0,VALID,95.1999,VALID,0.0169808,VALID,18.7451,VALID,180,VALID,0.977746,
2000-04-04, 00:21:00,VALID,917.593,VALID,0,VALID,95.1974,VALID,-0.0679233,VALID,18.7587,VALID,162,VALID,0.920025,
2000-04-04, 00:22:00,VALID,917.58,VALID,0,VALID,95.6615,VALID,-0.0849042,VALID,18.7694,VALID,153,VALID,0.816071,
2000-04-04, 00:23:00,VALID,917.567,VALID,0,VALID,95.879,VALID,-0.101885,VALID,18.753,VALID,145,VALID,0.863971,
2000-04-04, 00:24:00,VALID,917.552,VALID,0,VALID,96.0697,VALID,-0.0679233,VALID,18.7366,VALID,147,VALID,0.952914,
2000-04-04, 00:25:00,VALID,917.543,VALID,0,VALID,96.0964,VALID,-0.101885,VALID,18.7112,VALID,155,VALID,0.930321,
2000-04-04, 00:26:00,VALID,917.52,VALID,0,VALID,96.2528,VALID,-0.0509425,VALID,18.6787,VALID,165,VALID,0.965088,
2000-04-04, 00:27:00,VALID,917.522,VALID,0,VALID,96.3253,VALID,0,VALID,18.6397,VALID,171,VALID,0.8852,
2000-04-04, 00:28:00,VALID,917.496,VALID,0,VALID,96.53,VALID,-0.0169808,VALID,18.6169,VALID,186,VALID,0.892578,
2000-04-04, 00:29:00,VALID,917.482,VALID,0,VALID,96.7627,VALID,-0.0339617,VALID,18.6136,VALID,179,VALID,0.954782,
2000-04-04, 00:30:00,VALID,917.476,VALID,0,VALID,97.0387,VALID,-0.0339617,VALID,18.6272,VALID,177,VALID,1.05736,
2000-04-04, 00:31:00,VALID,917.467,VALID,0,VALID,97.115,VALID,-0.0679233,VALID,18.6136,VALID,169,VALID,0.944643,
2000-04-04, 00:32:00,VALID,917.46,VALID,0,VALID,97.354,VALID,-0.0509425,VALID,18.6337,VALID,181,VALID,1.12983,
2000-04-04, 00:33:00,VALID,917.437,VALID,0,VALID,97.4685,VALID,-0.0679233,VALID,18.6462,VALID,171,VALID,1.20967,
2000-04-04, 00:34:00,VALID,917.432,VALID,0,VALID,97.4303,VALID,-0.0509425,VALID,18.6625,VALID,181,VALID,1.04814,
2000-04-04, 00:35:00,VALID,917.415,VALID,0,VALID,97.4736,VALID,-0.0679233,VALID,18.6852,VALID,187,VALID,1.16431,
2000-04-04, 00:36:00,VALID,917.4,VALID,0,VALID,97.5397,VALID,0,VALID,18.6863,VALID,191,VALID,1.27474,
2000-04-04, 00:37:00,VALID,917.381,VALID,0,VALID,97.5003,VALID,0.0339617,VALID,18.7195,VALID,204,VALID,0.888021,
2000-04-04, 00:38:00,VALID,917.351,VALID,0,VALID,97.471,VALID,0.0339617,VALID,18.7193,VALID,203,VALID,1.13187,
2000-04-04, 00:39:00,VALID,917.336,VALID,0,VALID,97.5435,VALID,0.0169808,VALID,18.7386,VALID,213,VALID,0.862459,
2000-04-04, 00:40:00,VALID,917.319,VALID,0,VALID,97.4837,VALID,0.0169808,VALID,18.7419,VALID,201,VALID,1.01071,
2000-04-04, 00:41:00,VALID,917.306,VALID,0,VALID,97.4113,VALID,0.0169808,VALID,18.7714,VALID,204,VALID,0.889706,
2000-04-04, 00:42:00,VALID,917.283,VALID,0,VALID,97.2892,VALID,0.0169808,VALID,18.7707,VALID,199,VALID,0.896959,
2000-04-04, 00:43:00,VALID,917.279,VALID,0,VALID,97.1341,VALID,0.0339617,VALID,18.7806,VALID,199,VALID,0.988387,
2000-04-04, 00:44:00,VALID,917.268,VALID,0,VALID,97.0196,VALID,0,VALID,18.7906,VALID,188,VALID,1.14157,
2000-04-04, 00:45:00,VALID,917.259,VALID,0,VALID,96.8403,VALID,0.0339617,VALID,18.8007,VALID,188,VALID,1.10872,
2000-04-04, 00:46:00,VALID,917.251,VALID,0,VALID,96.7055,VALID,0.0169808,VALID,18.8005,VALID,174,VALID,0.899957,
2000-04-04, 00:47:00,VALID,917.243,VALID,0,VALID,96.6394,VALID,0.0339617,VALID,18.7906,VALID,182,VALID,0.96804,
2000-04-04, 00:48:00,VALID,917.238,VALID,0,VALID,96.4588,VALID,0.0339617,VALID,18.7707,VALID,185,VALID,0.820518,
2000-04-04, 00:49:00,VALID,917.226,VALID,0,VALID,96.4334,VALID,0.0509425,VALID,18.7612,VALID,166,VALID,0.766964,
2000-04-04, 00:50:00,VALID,917.229,VALID,0,VALID,96.4105,VALID,0.0679233,VALID,18.7481,VALID,155,VALID,0.774127,
2000-04-04, 00:51:00,VALID,917.213,VALID,0,VALID,96.427,VALID,-0.0339617,VALID,18.7299,VALID,153,VALID,0.673353,
2000-04-04, 00:52:00,VALID,917.195,VALID,0,VALID,96.3431,VALID,-0.0679233,VALID,18.6978,VALID,160,VALID,0.895904,
2000-04-04, 00:53:00,VALID,917.174,VALID,0,VALID,96.1371,VALID,-0.0849042,VALID,18.6722,VALID,171,VALID,0.905762,
2000-04-04, 00:54:00,VALID,917.176,VALID,0,VALID,96.0532,VALID,-0.0849042,VALID,18.6658,VALID,176,VALID,0.718099,
2000-04-04, 00:55:00,VALID,917.135,VALID,0,VALID,96.0863,VALID,-0.0679233,VALID,18.6533,VALID,184,VALID,0.853516,
2000-04-04, 00:56:00,VALID,917.135,VALID,0,VALID,96.3533,VALID,-0.0679233,VALID,18.6501,VALID,190,VALID,0.930871,
2000-04-04, 00:57:00,VALID,917.106,VALID,0,VALID,96.6102,VALID,-0.0509425,VALID,18.6302,VALID,195,VALID,0.810855,
2000-04-04, 00:58:00,VALID,917.083,VALID,0,VALID,96.7424,VALID,-0.0679233,VALID,18.6076,VALID,180,VALID,0.939509,
2000-04-04, 00:59:00,VALID,917.062,VALID,0,VALID,96.8975,VALID,-0.0679233,VALID,18.6046,VALID,177,VALID,0.905101,
2000-04-04, 01:00:00,VALID,917.049,VALID,0,VALID,97.0018,VALID,-0.0849042,VALID,18.5783,VALID,175,VALID,0.905828,
2000-04-04, 01:01:00,VALID,917.036,VALID,0,VALID,96.9764,VALID,-0.101885,VALID,18.5659,VALID,182,VALID,0.785262,
2000-04-04, 01:02:00,VALID,917.02,VALID,0,VALID,97.0501,VALID,-0.0679233,VALID,18.553,VALID,187,VALID,0.722412,
2000-04-04, 01:03:00,VALID,917.01,VALID,0,VALID,97.1722,VALID,-0.0679233,VALID,18.5274,VALID,179,VALID,0.751302,
2000-04-04, 01:04:00,VALID,916.997,VALID,0,VALID,97.2688,VALID,-0.101885,VALID,18.5048,VALID,168,VALID,0.702908,
2000-04-04, 01:05:00,VALID,916.989,VALID,0,VALID,97.3744,VALID,-0.0849042,VALID,18.4953,VALID,160,VALID,0.704309,
2000-04-04, 01:06:00,VALID,916.987,VALID,0,VALID,97.4392,VALID,0,VALID,18.4512,VALID,159,VALID,0.604646,
2000-04-04, 01:07:00,VALID,916.97,VALID,0,VALID,97.499,VALID,0,VALID,18.4385,VALID,161,VALID,0.623884,
2000-04-04, 01:08:00,VALID,916.966,VALID,0,VALID,97.6109,VALID,0.0339617,VALID,18.4224,VALID,145,VALID,0.646369,
2000-04-04, 01:09:00,VALID,916.951,VALID,0,VALID,97.6719,VALID,0,VALID,18.403,VALID,134,VALID,0.778083,
2000-04-04, 01:10:00,VALID,916.939,VALID,0,VALID,97.6808,VALID,0.0339617,VALID,18.4097,VALID,145,VALID,0.619721,
2000-04-04, 01:11:00,VALID,916.919,VALID,0,VALID,97.6465,VALID,0.0169808,VALID,18.4032,VALID,155,VALID,0.691895,
2000-04-04, 01:12:00,VALID,916.899,VALID,0,VALID,97.6796,VALID,0,VALID,18.4127,VALID,145,VALID,0.628038,
2000-04-04, 01:13:00,VALID,916.883,VALID,0,VALID,97.6325,VALID,0.0169808,VALID,18.4159,VALID,151,VALID,0.592231,
2000-04-04, 01:14:00,VALID,916.871,VALID,0,VALID,97.5639,VALID,0.0169808,VALID,18.3929,VALID,169,VALID,0.390388,
2000-04-04, 01:15:00,VALID,916.844,VALID,0,VALID,97.5639,VALID,0,VALID,18.3899,VALID,171,VALID,0.700658,
2000-04-04, 01:16:00,VALID,916.828,VALID,0,VALID,97.6999,VALID,0,VALID,18.3906,VALID,177,VALID,0.974107,
2000-04-04, 01:17:00,VALID,916.822,VALID,0,VALID,97.7915,VALID,0.0339617,VALID,18.3869,VALID,188,VALID,1.2176,
2000-04-04, 01:18:00,VALID,916.794,VALID,0,VALID,97.8652,VALID,0.0509425,VALID,18.4129,VALID,194,VALID,1.10557,
2000-04-04, 01:19:00,VALID,916.776,VALID,0,VALID,97.8919,VALID,0.0169808,VALID,18.4157,VALID,197,VALID,1.33235,
2000-04-04, 01:20:00,VALID,916.771,VALID,0,VALID,97.8996,VALID,0.0509425,VALID,18.4291,VALID,204,VALID,1.43799,
2000-04-04, 01:21:00,VALID,916.746,VALID,0,VALID,97.8627,VALID,-0.0169808,VALID,18.4362,VALID,193,VALID,1.43229,
2000-04-04, 01:22:00,VALID,916.734,VALID,0,VALID,97.6796,VALID,-0.0169808,VALID,18.4531,VALID,202,VALID,1.41016,
2000-04-04, 01:23:00,VALID,916.712,VALID,0,VALID,97.4125,VALID,-0.0169808,VALID,18.469,VALID,198,VALID,1.31771,
2000-04-04, 01:24:00,VALID,916.697,VALID,0,VALID,97.2358,VALID,-0.0169808,VALID,18.4983,VALID,193,VALID,1.11081,
2000-04-04, 01:25:00,VALID,916.681,VALID,0,VALID,97.1074,VALID,0,VALID,18.514,VALID,198,VALID,0.906696,
2000-04-04, 01:26:00,VALID,916.653,VALID,0,VALID,97.0425,VALID,-0.0169808,VALID,18.5174,VALID,207,VALID,0.613281,
2000-04-04, 01:27:00,VALID,916.642,VALID,0,VALID,97.026,VALID,0,VALID,18.5011,VALID,198,VALID,0.817779,
2000-04-04, 01:28:00,VALID,916.633,VALID,0,VALID,97.1035,VALID,-0.0169808,VALID,18.4821,VALID,204,VALID,0.870355,
2000-04-04, 01:29:00,VALID,916.618,VALID,0,VALID,97.162,VALID,-0.0169808,VALID,18.4563,VALID,197,VALID,0.713623,
2000-04-04, 01:30:00,VALID,916.608,VALID,0,VALID,97.2129,VALID,-0.0509425,VALID,18.4402,VALID,202,VALID,0.995226,
2000-04-04, 01:31:00,VALID,916.59,VALID,0,VALID,97.1353,VALID,-0.0339617,VALID,18.4402,VALID,200,VALID,0.928819,
2000-04-04, 01:32:00,VALID,916.564,VALID,0,VALID,97.0819,VALID,-0.0339617,VALID,18.4595,VALID,199,VALID,0.611979,
2000-04-04, 01:33:00,VALID,916.56,VALID,0,VALID,97.0641,VALID,-0.0509425,VALID,18.4593,VALID,196,VALID,0.645765,
2000-04-04, 01:34:00,VALID,916.54,VALID,0,VALID,97.0578,VALID,0,VALID,18.4563,VALID,190,VALID,0.965179,
2000-04-04, 01:35:00,VALID,916.53,VALID,0,VALID,96.9993,VALID,0,VALID,18.4496,VALID,184,VALID,1.18566,
2000-04-04, 01:36:00,VALID,916.524,VALID,0,VALID,96.8505,VALID,-0.0339617,VALID,18.4563,VALID,182,VALID,1.1098,
2000-04-04, 01:37:00,VALID,916.514,VALID,0,VALID,96.7004,VALID,-0.0339617,VALID,18.4727,VALID,193,VALID,1.25338,
2000-04-04, 01:38:00,VALID,916.511,VALID,0,VALID,96.6038,VALID,-0.0849042,VALID,18.4856,VALID,193,VALID,1.24194,
2000-04-04, 01:39:00,VALID,916.487,VALID,0,VALID,96.5847,VALID,-0.0339617,VALID,18.5179,VALID,196,VALID,0.821615,
2000-04-04, 01:40:00,VALID,916.466,VALID,0,VALID,96.4372,VALID,-0.0339617,VALID,18.5343,VALID,182,VALID,0.949002,
2000-04-04, 01:41:00,VALID,916.447,VALID,0,VALID,96.3126,VALID,-0.0169808,VALID,18.5241,VALID,187,VALID,1.03007,
2000-04-04, 01:42:00,VALID,916.432,VALID,0,VALID,96.2414,VALID,-0.0339617,VALID,18.5375,VALID,181,VALID,0.928043,
2000-04-04, 01:43:00,VALID,916.401,VALID,0,VALID,96.0239,VALID,-0.0169808,VALID,18.5177,VALID,182,VALID,1.01496,
2000-04-04, 01:44:00,VALID,916.391,VALID,0,VALID,95.9756,VALID,-0.0339617,VALID,18.5207,VALID,188,VALID,0.934972,
2000-04-04, 01:45:00,VALID,916.374,VALID,0,VALID,95.9616,VALID,-0.0849042,VALID,18.5177,VALID,183,VALID,0.859375,
2000-04-04, 01:46:00,VALID,916.371,VALID,0,VALID,96.1104,VALID,-0.0169808,VALID,18.5082,VALID,180,VALID,0.865498,
2000-04-04, 01:47:00,VALID,916.361,VALID,0,VALID,96.3571,VALID,-0.0679233,VALID,18.4824,VALID,183,VALID,0.814453,
2000-04-04, 01:48:00,VALID,916.353,VALID,0,VALID,96.4906,VALID,-0.0849042,VALID,18.4533,VALID,181,VALID,0.809679,
2000-04-04, 01:49:00,VALID,916.336,VALID,0,VALID,96.7526,VALID,-0.0509425,VALID,18.4314,VALID,180,VALID,0.773003,
2000-04-04, 01:50:00,VALID,916.324,VALID,0,VALID,96.9967,VALID,-0.0849042,VALID,18.4016,VALID,181,VALID,0.741241,
2000-04-04, 01:51:00,VALID,916.306,VALID,0,VALID,97.2065,VALID,0,VALID,18.3924,VALID,183,VALID,0.788651,
2000-04-04, 01:52:00,VALID,916.283,VALID,0,VALID,97.5486,VALID,-0.0339617,VALID,18.3656,VALID,191,VALID,1.03103,
2000-04-04, 01:53:00,VALID,916.263,VALID,0,VALID,97.6821,VALID,-0.0339617,VALID,18.3823,VALID,185,VALID,0.923713,
2000-04-04, 01:54:00,VALID,916.244,VALID,0,VALID,97.6516,VALID,-0.0509425,VALID,18.4016,VALID,190,VALID,1.12901,
2000-04-04, 01:55:00,VALID,916.235,VALID,0,VALID,97.3896,VALID,-0.0169808,VALID,18.4116,VALID,191,VALID,1.26478,
2000-04-04, 01:56:00,VALID,916.215,VALID,0,VALID,96.7538,VALID,-0.0509425,VALID,18.4175,VALID,195,VALID,1.34399,
2000-04-04, 01:57:00,VALID,916.208,VALID,0,VALID,96.0087,VALID,-0.0509425,VALID,18.4561,VALID,195,VALID,1.14019,
2000-04-04, 01:58:00,VALID,916.183,VALID,0,VALID,95.514,VALID,-0.0509425,VALID,18.5018,VALID,193,VALID,1.16949,
2000-04-04, 01:59:00,VALID,916.169,VALID,0,VALID,95.2724,VALID,-0.0509425,VALID,18.5241,VALID,197,VALID,1.00426,
2000-04-04, 02:00:00,VALID,916.162,VALID,0,VALID,95.1999,VALID,-0.0339617,VALID,18.5414,VALID,193,VALID,0.843339,
2000-04-04, 02:01:00,VALID,916.142,VALID,0,VALID,95.069,VALID,-0.0339617,VALID,18.5144,VALID,177,VALID,0.849554,
2000-04-04, 02:02:00,VALID,916.136,VALID,0,VALID,95.2317,VALID,-0.0509425,VALID,18.5082,VALID,173,VALID,0.67693,
2000-04-04, 02:03:00,VALID,916.131,VALID,0,VALID,95.3042,VALID,-0.0509425,VALID,18.4856,VALID,163,VALID,0.800887,
2000-04-04, 02:04:00,VALID,916.116,VALID,0,VALID,95.3436,VALID,-0.0509425,VALID,18.4503,VALID,161,VALID,0.70038,
2000-04-04, 02:05:00,VALID,916.109,VALID,0,VALID,95.5471,VALID,-0.0679233,VALID,18.3788,VALID,161,VALID,0.7146,
2000-04-04, 02:06:00,VALID,916.092,VALID,0,VALID,95.8523,VALID,0.0339617,VALID,18.3165,VALID,160,VALID,0.753472,
2000-04-04, 02:07:00,VALID,916.079,VALID,0,VALID,96.0176,VALID,0.0339617,VALID,18.2614,VALID,154,VALID,0.9375,
2000-04-04, 02:08:00,VALID,916.063,VALID,0,VALID,96.2465,VALID,0.0679233,VALID,18.2164,VALID,157,VALID,0.790009,
2000-04-04, 02:09:00,VALID,916.06,VALID,0,VALID,96.5135,VALID,0.0679233,VALID,18.1776,VALID,166,VALID,0.775082,
2000-04-04, 02:10:00,VALID,916.047,VALID,0,VALID,96.6725,VALID,0.0339617,VALID,18.1516,VALID,173,VALID,0.783929,
2000-04-04, 02:11:00,VALID,916.036,VALID,0,VALID,96.6776,VALID,0.0339617,VALID,18.152,VALID,182,VALID,0.741268,
2000-04-04, 02:12:00,VALID,916.022,VALID,0,VALID,96.7437,VALID,0.0509425,VALID,18.158,VALID,184,VALID,1.03843,
2000-04-04, 02:13:00,VALID,916.021,VALID,0,VALID,96.614,VALID,0.0169808,VALID,18.1742,VALID,178,VALID,1.0568,
2000-04-04, 02:14:00,VALID,916.006,VALID,0,VALID,96.5504,VALID,0.0509425,VALID,18.1871,VALID,173,VALID,0.867188,
2000-04-04, 02:15:00,VALID,915.996,VALID,0,VALID,96.5428,VALID,0.0509425,VALID,18.1841,VALID,166,VALID,0.821832,
2000-04-04, 02:16:00,VALID,915.99,VALID,0,VALID,96.4639,VALID,0.0339617,VALID,18.1684,VALID,181,VALID,0.985677,
2000-04-04, 02:17:00,VALID,915.977,VALID,0,VALID,96.3482,VALID,0.0339617,VALID,18.1652,VALID,197,VALID,1.02036,
2000-04-04, 02:18:00,VALID,915.965,VALID,0,VALID,96.1041,VALID,0.0679233,VALID,18.1486,VALID,192,VALID,0.919819,
2000-04-04, 02:19:00,VALID,915.96,VALID,0,VALID,96.0138,VALID,0.0679233,VALID,18.1615,VALID,208,VALID,0.786607,
2000-04-04, 02:20:00,VALID,915.948,VALID,0,VALID,96.0227,VALID,0.0339617,VALID,18.1714,VALID,214,VALID,0.544807,
2000-04-04, 02:21:00,VALID,915.951,VALID,0,VALID,96.1142,VALID,0.0169808,VALID,18.1714,VALID,204,VALID,0.642314,
2000-04-04, 02:22:00,VALID,915.94,VALID,0,VALID,95.6882,VALID,0.0169808,VALID,18.1384,VALID,197,VALID,0.974873,
2000-04-04, 02:23:00,VALID,915.924,VALID,0,VALID,95.7289,VALID,0,VALID,18.1714,VALID,196,VALID,0.611572,
2000-04-04, 02:24:00,VALID,915.903,VALID,0,VALID,95.8892,VALID,0,VALID,18.1779,VALID,205,VALID,0.338542,
2000-04-04, 02:25:00,VALID,915.905,VALID,0,VALID,96.0812,VALID,0,VALID,18.1841,VALID,215,VALID,0.0651042,
2000-04-04, 02:26:00,VALID,915.882,VALID,0,VALID,96.2439,VALID,0.0509425,VALID,18.1746,VALID,215,VALID,0.298059,
2000-04-04, 02:27:00,VALID,915.869,VALID,0,VALID,96.4779,VALID,0.0169808,VALID,18.1647,VALID,231,VALID,0.523232,
2000-04-04, 02:28:00,VALID,915.863,VALID,0,VALID,96.7322,VALID,0,VALID,18.1548,VALID,227,VALID,0.773214,
2000-04-04, 02:29:00,VALID,915.848,VALID,0,VALID,96.9077,VALID,0.0169808,VALID,18.1587,VALID,222,VALID,0.782169,
2000-04-04, 02:30:00,VALID,915.83,VALID,0,VALID,96.9649,VALID,0,VALID,18.1585,VALID,220,VALID,0.610853,
2000-04-04, 02:31:00,VALID,915.818,VALID,0,VALID,96.9255,VALID,0.0339617,VALID,18.1424,VALID,195,VALID,0.320735,
2000-04-04, 02:32:00,VALID,915.812,VALID,0,VALID,97.0298,VALID,0.0169808,VALID,18.1294,VALID,199,VALID,0.115967,
2000-04-04, 02:33:00,VALID,915.804,VALID,0,VALID,96.9955,VALID,0.0169808,VALID,18.1133,VALID,202,VALID,0.0208333,
2000-04-04, 02:34:00,VALID,915.795,VALID,0,VALID,96.8111,VALID,0.0679233,VALID,18.0743,VALID,197,VALID,0,
2000-04-04, 02:35:00,VALID,915.786,VALID,0,VALID,96.4627,VALID,0.0509425,VALID,18.0326,VALID,191,VALID,0.576705,
2000-04-04, 02:36:00,VALID,915.778,VALID,0,VALID,96.5237,VALID,-0.0679233,VALID,18.0436,VALID,200,VALID,0.623766,
2000-04-04, 02:37:00,VALID,915.782,VALID,0,VALID,96.7233,VALID,-0.0509425,VALID,18.0238,VALID,199,VALID,0.735491,
2000-04-04, 02:38:00,VALID,915.782,VALID,0,VALID,96.6598,VALID,-0.0679233,VALID,17.9954,VALID,199,VALID,0.758042,
2000-04-04, 02:39:00,VALID,915.784,VALID,0,VALID,96.3139,VALID,-0.0339617,VALID,17.9566,VALID,191,VALID,1.00823,
2000-04-04, 02:40:00,VALID,915.78,VALID,0,VALID,95.9756,VALID,-0.0849042,VALID,17.9601,VALID,186,VALID,1.11022,
2000-04-04, 02:41:00,VALID,915.771,VALID,0,VALID,96.0494,VALID,-0.0679233,VALID,17.9753,VALID,190,VALID,0.991455,
2000-04-04, 02:42:00,VALID,915.771,VALID,0,VALID,95.9057,VALID,0,VALID,17.9947,VALID,191,VALID,0.889974,
2000-04-04, 02:43:00,VALID,915.764,VALID,0,VALID,95.8523,VALID,-0.0679233,VALID,18.0079,VALID,186,VALID,1.06445,
2000-04-04, 02:44:00,VALID,915.738,VALID,0,VALID,95.6437,VALID,-0.0679233,VALID,18.0141,VALID,181,VALID,1.07576,
2000-04-04, 02:45:00,VALID,915.731,VALID,0,VALID,95.7633,VALID,-0.0679233,VALID,18.0441,VALID,182,VALID,0.902755,
2000-04-04, 02:46:00,VALID,915.727,VALID,0,VALID,95.7137,VALID,-0.0679233,VALID,18.0378,VALID,187,VALID,0.978795,
2000-04-04, 02:47:00,VALID,915.701,VALID,0,VALID,95.8637,VALID,-0.0849042,VALID,18.018,VALID,191,VALID,0.848575,
2000-04-04, 02:48:00,VALID,915.677,VALID,0,VALID,96.0774,VALID,-0.0169808,VALID,18.0141,VALID,172,VALID,0.864443,
2000-04-04, 02:49:00,VALID,915.654,VALID,0,VALID,96.1854,VALID,-0.0849042,VALID,17.9982,VALID,170,VALID,0.874578,
2000-04-04, 02:50:00,VALID,915.616,VALID,0,VALID,96.2185,VALID,-0.0679233,VALID,17.9723,VALID,163,VALID,0.850342,
2000-04-04, 02:51:00,VALID,915.606,VALID,0,VALID,96.3126,VALID,-0.0679233,VALID,17.9569,VALID,170,VALID,0.851345,
2000-04-04, 02:52:00,VALID,915.591,VALID,0,VALID,96.319,VALID,-0.0679233,VALID,17.9403,VALID,179,VALID,0.853733,
2000-04-04, 02:53:00,VALID,915.579,VALID,0,VALID,96.3953,VALID,-0.0509425,VALID,17.944,VALID,211,VALID,0.74929,
2000-04-04, 02:54:00,VALID,915.575,VALID,0,VALID,96.5517,VALID,-0.0339617,VALID,17.9334,VALID,215,VALID,1.08594,
2000-04-04, 02:55:00,VALID,915.568,VALID,0,VALID,96.6216,VALID,-0.0849042,VALID,17.9308,VALID,202,VALID,1.06071,
2000-04-04, 02:56:00,VALID,915.555,VALID,0,VALID,96.4372,VALID,-0.0679233,VALID,17.941,VALID,190,VALID,1.11121,
2000-04-04, 02:57:00,VALID,915.541,VALID,0,VALID,96.2045,VALID,-0.0679233,VALID,17.9403,VALID,181,VALID,0.93391,
2000-04-04, 02:58:00,VALID,915.528,VALID,0,VALID,96.2096,VALID,-0.0679233,VALID,17.9599,VALID,168,VALID,0.78484,
2000-04-04, 02:59:00,VALID,915.517,VALID,0,VALID,96.1435,VALID,-0.0849042,VALID,17.9433,VALID,166,VALID,0.803223,
2000-04-04, 03:00:00,VALID,915.5,VALID,0,VALID,95.9413,VALID,-0.0339617,VALID,17.9338,VALID,169,VALID,0.867622,
2000-04-04, 03:01:00,VALID,915.498,VALID,0,VALID,95.9184,VALID,-0.0339617,VALID,17.9204,VALID,171,VALID,0.703776,
2000-04-04, 03:02:00,VALID,915.492,VALID,0,VALID,95.8243,VALID,-0.0339617,VALID,17.9239,VALID,174,VALID,0.698864,
2000-04-04, 03:03:00,VALID,915.481,VALID,0,VALID,95.9222,VALID,-0.0169808,VALID,17.9241,VALID,174,VALID,0.704153,
2000-04-04, 03:04:00,VALID,915.482,VALID,0,VALID,96.0786,VALID,-0.0169808,VALID,17.9211,VALID,198,VALID,0.678795,
2000-04-04, 03:05:00,VALID,915.491,VALID,0,VALID,96.2872,VALID,-0.0339617,VALID,17.908,VALID,212,VALID,0.900735,
2000-04-04, 03:06:00,VALID,915.466,VALID,0,VALID,96.0608,VALID,0,VALID,17.8847,VALID,198,VALID,1.07834,
2000-04-04, 03:07:00,VALID,915.452,VALID,0,VALID,95.687,VALID,0,VALID,17.8847,VALID,182,VALID,1.02492,
2000-04-04, 03:08:00,VALID,915.437,VALID,0,VALID,95.7302,VALID,0.0169808,VALID,17.923,VALID,173,VALID,0.708008,
2000-04-04, 03:09:00,VALID,915.43,VALID,0,VALID,95.6882,VALID,0,VALID,17.9036,VALID,171,VALID,0.776042,
2000-04-04, 03:10:00,VALID,915.414,VALID,0,VALID,95.7849,VALID,-0.0169808,VALID,17.8912,VALID,179,VALID,0.664063,
2000-04-04, 03:11:00,VALID,915.411,VALID,0,VALID,96.0952,VALID,0.0169808,VALID,17.8647,VALID,202,VALID,0.877841,
2000-04-04, 03:12:00,VALID,915.412,VALID,0,VALID,96.1486,VALID,0,VALID,17.8326,VALID,206,VALID,0.806538,
2000-04-04, 03:13:00,VALID,915.416,VALID,0,VALID,96.1778,VALID,0,VALID,17.8363,VALID,198,VALID,0.998661,
2000-04-04, 03:14:00,VALID,915.399,VALID,0,VALID,96.188,VALID,0.0169808,VALID,17.8722,VALID,194,VALID,1.02114,
2000-04-04, 03:15:00,VALID,915.408,VALID,0,VALID,95.9769,VALID,0,VALID,17.9073,VALID,193,VALID,1.03209,
2000-04-04, 03:16:00,VALID,915.402,VALID,0,VALID,95.8269,VALID,0.0339617,VALID,17.9461,VALID,196,VALID,0.766681,
2000-04-04, 03:17:00,VALID,915.402,VALID,0,VALID,95.851,VALID,0,VALID,17.9521,VALID,200,VALID,0.693115,
2000-04-04, 03:18:00,VALID,915.392,VALID,0,VALID,95.7849,VALID,-0.0169808,VALID,17.959,VALID,200,VALID,0.636502,
2000-04-04, 03:19:00,VALID,915.387,VALID,0,VALID,95.8726,VALID,0,VALID,17.9788,VALID,204,VALID,0.438151,
2000-04-04, 03:20:00,VALID,915.378,VALID,0,VALID,95.9095,VALID,0.0169808,VALID,17.9553,VALID,198,VALID,0.533381,
2000-04-04, 03:21:00,VALID,915.376,VALID,0,VALID,95.9197,VALID,0,VALID,17.9426,VALID,192,VALID,0.698808,
2000-04-04, 03:22:00,VALID,915.369,VALID,0,VALID,95.8612,VALID,0,VALID,17.9235,VALID,187,VALID,0.950446,
2000-04-04, 03:23:00,VALID,915.359,VALID,0,VALID,95.5395,VALID,-0.0339617,VALID,17.9525,VALID,187,VALID,0.992188,
2000-04-04, 03:24:00,VALID,915.35,VALID,0,VALID,95.3373,VALID,0.0169808,VALID,17.9973,VALID,188,VALID,0.994299,
2000-04-04, 03:25:00,VALID,915.347,VALID,0,VALID,95.1898,VALID,-0.0169808,VALID,18.0494,VALID,188,VALID,0.953547,
2000-04-04, 03:26:00,VALID,915.354,VALID,0,VALID,94.9647,VALID,0,VALID,18.0821,VALID,189,VALID,0.971924,
2000-04-04, 03:27:00,VALID,915.341,VALID,0,VALID,94.9049,VALID,0,VALID,18.0976,VALID,176,VALID,0.712023,
2000-04-04, 03:28:00,VALID,915.345,VALID,0,VALID,95.1783,VALID,0,VALID,18.1047,VALID,164,VALID,0.338108,
2000-04-04, 03:29:00,VALID,915.339,VALID,0,VALID,95.294,VALID,0,VALID,18.0658,VALID,199,VALID,0.605114,
2000-04-04, 03:30:00,VALID,915.343,VALID,0,VALID,95.0588,VALID,0,VALID,18.033,VALID,207,VALID,1.07113,